Location: Wells
(51.2093°N, 2.6446°W)
Time: 22:31:26
(UTC+00:00)

CUTE-I - Visible Passes

Search period start: 12 March 2026 00:00
Search period end: 22 March 2026 00:00
Orbit: 803 x 819 km, 98.7° (Epoch: 12 March)

Date Brightness Start Highest point End Pass type
(mag) Time Alt. Az. Time Alt. Az. Time Alt. Az.
12 Mar ? 19:16:47 10° WSW 19:19:24 14° W 19:22:02 10° NW visible
13 Mar ? 05:44:16 10° NE 05:48:43 27° E 05:53:09 10° SSE visible
13 Mar ? 18:51:40 10° SW 18:55:37 21° W 18:59:35 10° NW visible
14 Mar ? 05:21:28 10° NE 05:25:00 18° E 05:28:30 10° SE visible
15 Mar ? 04:59:34 10° ENE 05:01:10 11° E 05:02:46 10° ESE visible
16 Mar ? 19:23:37 10° WSW 19:25:38 12° W 19:27:40 10° WNW visible
17 Mar ? 18:58:09 10° SW 19:01:50 19° W 19:05:31 10° NW visible
18 Mar ? 05:27:23 10° NE 05:31:12 20° E 05:35:01 10° SE visible
19 Mar ? 05:05:04 10° ENE 05:07:23 13° E 05:09:43 10° ESE visible
20 Mar ? 19:30:46 10° W 19:31:51 11° W 19:32:58 10° WNW visible
21 Mar ? 19:04:40 10° SW 19:08:02 17° W 19:11:24 10° NW visible
